This is the latest recevied weather packets stored in our database for station/object KE3HG-2. If no packets are shown the sender has not sent any weather packets the latest 10 day(s).
| Time | Temp. | Humidity | Pressure | Rain* | Wind** | Luminosity | Snow |
|---|---|---|---|---|---|---|---|
| 1777767784 | 11.67° C | 33% | 757.5 hPa | 0 mm | - | - | - |
| 1777767184 | 12.22° C | 33% | 757.5 hPa | 0 mm | - | - | - |
| 1777766584 | 12.22° C | 32% | 757.5 hPa | 0 mm | - | - | - |
| 1777765605 | 12.22° C | 31% | 757.5 hPa | 0 mm | - | - | - |
| 1777765003 | 12.78° C | 31% | 757.5 hPa | 0 mm | - | - | - |
| 1777764403 | 12.78° C | 29% | 757.5 hPa | 0 mm | - | - | - |
| 1777763418 | 13.33° C | 28% | 757.5 hPa | 0 mm | - | - | - |
| 1777762818 | 13.33° C | 27% | 757.5 hPa | 0 mm | - | - | - |
| 1777762218 | 13.33° C | 25% | 757.5 hPa | 0 mm | - | - | - |
| 1777761099 | 13.33° C | 27% | 757.5 hPa | 0 mm | - | - | - |
| 1777760499 | 13.33° C | 28% | 757.5 hPa | 0 mm | - | - | - |
| 1777759899 | 13.33° C | 26% | 757.5 hPa | 0 mm | - | - | - |
| 1777758918 | 13.89° C | 26% | 757.5 hPa | 0 mm | - | - | - |
| 1777758318 | 13.89° C | 25% | 757.5 hPa | 0 mm | - | - | - |
| 1777757719 | 13.89° C | 28% | 757.5 hPa | 0 mm | - | - | - |
| 1777756739 | 13.89° C | 26% | 757.5 hPa | 0 mm | - | - | - |
| 1777756139 | 13.89° C | 26% | 757.5 hPa | 0 mm | - | - | - |
| 1777755539 | 13.89° C | 25% | 757.5 hPa | 0 mm | - | - | - |
| 1777754571 | 14.44° C | 27% | 757.5 hPa | 0 mm | - | - | - |
| 1777753971 | 13.89° C | 29% | 757.5 hPa | 0 mm | - | - | - |
| 1777753370 | 13.89° C | 28% | 757.5 hPa | 0 mm | - | - | - |
| 1777752391 | 14.44° C | 24% | 757.5 hPa | 0 mm | - | - | - |
| 1777751792 | 15° C | 25% | 757.5 hPa | 0 mm | - | - | - |
| 1777751192 | 15° C | 27% | 757.5 hPa | 0 mm | - | - | - |
| 1777750220 | 14.44° C | 27% | 757.5 hPa | 0 mm | - | - | - |
* Rain latest hour (hover to see other rain measurements)
** Current wind speed in m/s (hover to see current wind gust speed)